Weather Roundup
Issued by NWS Chicago, IL

Home | Current Version | Previous Version | Graphics & Text | Print | Product List | Glossary On
Versions: 1 2 3 4 5 6 7 8 9 10 11 12 13 14 15 16 17 18 19 20 21 22 23 24 25 26 27 28 29 30 31 32 33 34 35 36 37 38 39 40 41 42 43 44 45 46 47 48 49 50
000
NZUS59 KLOT 150110
HRRLOT

CHICAGO AREA WEATHER ROUNDUP
NATIONAL WEATHER SERVICE CHICAGO/ROMEOVILLE IL
800 PM CDT SUN SEP 14 2014

NOTE: "FAIR" INDICATES FEW OR NO CLOUDS BELOW 12,000 FEET WITH NO
SIGNIFICANT WEATHER AND/OR OBSTRUCTIONS TO VISIBILITY.

* THESE STATIONS ARE NOT UNDER NWS QUALITY CONTROL. THEY ALSO MAY NOT
  REPORT WEATHER SUCH AS PRECIPITATION OR FOG.

ILZ005-006-012>014-019>023-150200-
NORTHEAST ILLINOIS

CITY           SKY/WX    TMP DP  RH WIND       PRES   REMARKS
OHARE          PTCLDY    59  44  57 SW5       30.17S
MIDWAY         PTCLDY    64  44  48 S5        30.17F
AURORA         CLEAR     55  44  66 S3        30.17F
LANSING*       CLEAR     56  47  70 CALM      30.19S
JOLIET*        CLEAR     53  48  83 CALM      30.19S
WAUKEGAN       PTCLDY    54  48  80 SW3       30.16S
DUPAGE AIRPORT CLEAR     55  47  74 CALM      30.17F
WHEELING       PTCLDY    62  44  51 CALM      30.19S
KANKAKEE*      CLEAR     54  49  85 CALM      30.19S
MORRIS*        CLEAR     58  48  69 CALM      30.18S
LEWIS AIRPORT* CLEAR     54  46  74 S3        30.18S
NORTHERLY IS     N/A     63  41  44 SW5         N/A
$$

WIZ051-052-058>065-066-070>072-150200-
SOUTHEAST WISCONSIN

CITY           SKY/WX    TMP DP  RH WIND       PRES   REMARKS
MILWAUKEE      PTCLDY    58  45  62 S6        30.14F
KENOSHA*       PTCLDY    57  47  69 S6        30.16F
RACINE*        CLEAR     57  47  69 CALM      30.17F
BURLINGTON     PTCLDY    51  46  83 CALM      30.15F
WAUKESHA       CLEAR     55  45  67 SW3       30.16S
WEST BEND      CLEAR     54  45  71 S3        30.14S
$$

INZ001>003-010>013-019-020-150200-
NORTHWEST INDIANA

CITY           SKY/WX    TMP DP  RH WIND       PRES   REMARKS
GARY*          PTCLDY    54  50  87 S7        30.19S
MICHIGAN CITY* NOT AVBL
RENSSELAER*    NOT AVBL
VALPARAISO     CLEAR     55  47  74 CALM      30.20S
$$

LMZ740>746-150200-
SOUTHERN LAKE MICHIGAN

STATION/POSITION TIME  SKY/WX   TEMP WIND        PRES    VSBY
                                AIR  DIR/SP/G
                 (UTC)          (F)  (DEG/KT/KT) (MB)    (MI)
HARRISON CRIB    0100            63  200/ 10/ 11   N/A
BURNHAM HARBOR   0100            63  190/  3/  8   N/A
CALUMET HARBOR   0100            62  190/  3/  4 1020.7F
BURNS HARBOR     NOT AVBL
MICHIGAN CITY    0100            62  160/  7/  8   N/A
$$

ABBREVIATIONS USED IN REMARKS
   TC - TEMPERATURE IN CELSIUS
  WCI - WIND CHILL INDEX
   HX - HEAT INDEX
  VSB - VISIBILITY
$$



USA.gov is the U.S. government's official web portal to all federal, state and local government web resources and services.